星链-35498(STARLINK-35498)

导读 | 豆包AI

STARLINK-35498是美国于2025年12月10日发射的Starlink星链卫星,星链是SpaceX打造的低轨卫星互联网星座项目,该卫星旨在为全球提供高速低延迟宽带网络服务,覆盖偏远、网络基础设施薄弱区域,充实星链星座组网规模,进一步提升星座服务覆盖能力与网络稳定性。

基本信息
目录编号:
67017
目录名称:
STARLINK-35498
国际标识:
2025-293Q
轨道中心:
EARTH
卫星名称:
星链-35498
卫星全名:
星链-35498(STARLINK-35498)
卫星状态:
在轨 (已飞行140 天)
发射日期:
2025-12-10 UTC
国别 :
美国 (US)
星等 :
--
轨道信息
数据来源 国际轨道数据
星历时间: 2026-04-29T04:27:39+0800
8小时前
查看轨道信息
半长轴: 6950.201km
偏心率: 0.0002433
轨道倾角: 70.002°
近地点辐角 271.866°
升交点赤经 327.900°
平近点角 88.222°
近地点: 570.373km
远地点: 573.755km
周期: 96.107分钟
每日圈数: 14.983275
详细信息
固有亮度:
5
最大亮度:
2.5
卫星平台:
Starlink V1.0
覆盖范围:
全球
运营商:
太空探索技术公司
运营商所在国:
美国
制造商(研发单位):
太空探索技术公司
制造商所在国:
美国
使用方式:
暂无
卫星简介
Starlink 计划是 SpaceX 推出的全球卫星互联网项目,通过发射低轨道卫星,为全球尤其是偏远地区提供高速、低延迟的互联网服务。自 2019 年起,Starlink 已部署数千颗卫星,旨在缩小全球数字鸿沟,推动互联网普及。该项目还为军事、航空等行业提供通信支持,带来广泛经济效益。
2D轨道图
3D轨道图
轨道高度分析图
轨道倾角分析图
轨道综合分析图
查看轨道综合分析图